This demonstration page uses our WeatherBlox Daily Observations layout. Learn more.

Left ArrowRight Arrow

36.17497, -115.13722

Hourly Observations for August 7, 2022

Temp ( °F °C ) Dew Point ( °F °C ) Humidity (%) Winds ( mph kmh ) Pressure ( in mb ) Visibility ( mi km ) Precip ( " mm )
12:53 am 00:53 Clear 92 33.3 51 10.6 25 25 NW 5 7 29.89 1012 10 16 0.00 0.00
1:53 am 01:53 Clear 90 32.2 51 10.6 26 26 NNW 6 9 29.90 1012 10 16 0.00 0.00
2:53 am 02:53 Clear 89 31.7 51 10.6 27 27 NNE 7 11 29.91 1013 10 16 0.00 0.00
3:53 am 03:53 Clear 87 30.6 52 11.1 30 30 N 3 6 29.91 1013 10 16 0.00 0.00
4:53 am 04:53 Clear 85 29.4 52 11.1 32 32 NNW 5 7 29.92 1013 10 16 0.00 0.00
5:53 am 05:53 Sunny 83 28.3 52 11.1 34 34 NW 5 7 29.94 1014 10 16 0.00 0.00
6:53 am 06:53 Sunny 86 30 53 11.7 32 32 Calm 29.96 1015 10 16 0.00 0.00
7:53 am 07:53 Sunny 88 31.1 54 12.2 31 31 Calm 29.98 1015 10 16 0.00 0.00
8:53 am 08:53 Sunny 90 32.2 54 12.2 29 29 SW 3 6 29.98 1015 10 16 0.00 0.00
9:53 am 09:53 Sunny 94 34.4 54 12.2 26 26 Calm 29.98 1015 10 16 0.00 0.00
10:53 am 10:53 Sunny 96 35.6 53 11.7 23 23 SE 5 7 29.98 1015 10 16 0.00 0.00
11:53 am 11:53 Sunny 98 36.7 52 11.1 21 21 SSE 8 13 29.96 1015 10 16 0.00 0.00
12:53 pm 12:53 Sunny 100 37.8 49 9.4 18 18 SE 12 19 29.94 1014 10 16 0.00 0.00
1:53 pm 13:53 Sunny 102 38.9 48 8.9 16 16 Calm 29.92 1013 10 16 0.00 0.00
2:53 pm 14:53 Sunny 105 40.6 48 8.9 15 15 VRB 5 7 29.88 1012 10 16 0.00 0.00
3:53 pm 15:53 Sunny 105 40.6 48 8.9 15 15 N 6 9 29.86 1011 10 16 0.00 0.00
4:53 pm 16:53 Sunny 103 39.4 47 8.3 15 15 SSW 5 7 29.85 1011 10 16 0.00 0.00
5:53 pm 17:53 Sunny 104 40 48 8.9 15 15 ESE 8 13 29.84 1011 10 16 0.00 0.00
6:53 pm 18:53 Sunny 103 39.4 47 8.3 15 15 Calm 29.84 1010 10 16 0.00 0.00
7:53 pm 19:53 Clear 101 38.3 47 8.3 16 16 Calm 29.85 1011 10 16 0.00 0.00
8:53 pm 20:53 Clear 101 38.3 48 8.9 17 17 S 3 6 29.85 1011 10 16 0.00 0.00
9:53 pm 21:53 Clear 98 36.7 50 10 20 20 N 7 11 29.88 1012 10 16 0.00 0.00
10:53 pm 22:53 Clear 94 34.4 51 10.6 23 23 WNW 5 7 29.88 1012 10 16 0.00 0.00
11:53 pm 23:53 Clear 94 34.4 51 10.6 23 23 N 5 7 29.88 1012 10 16 0.00 0.00

Powered by AerisWeather